| time (UTC) | temp F | wind direction | speed MPH | gust MPH | rain 1hr in | rain 24hr in | rain mn in | humidity % | barometer mb |
| 20260506003540 | 65 | 174 | 1.0 | 2.0 | 0.00 | 0.00 | 0.00 | 64 | 1008.0 |
| 20260506003047 | 65 | 220 | 0.0 | 3.0 | 0.00 | 0.00 | 0.00 | 64 | 1008.1 |
| 20260506002539 | 65 | 220 | 0.0 | 3.0 | 0.00 | 0.00 | 0.00 | 64 | 1007.9 |
| 20260506002036 | 65 | 295 | 1.0 | 3.0 | 0.00 | 0.00 | 0.00 | 64 | 1007.8 |
| 20260506001553 | 65 | 159 | 1.0 | 4.0 | 0.00 | 0.00 | 0.00 | 64 | 1007.4 |
| 20260506001041 | 65 | 214 | 1.0 | 4.0 | 0.00 | 0.00 | 0.00 | 63 | 1007.3 |
| 20260506000537 | 65 | 184 | 1.0 | 2.0 | 0.00 | 0.00 | 0.00 | 63 | 1006.9 |
| 20260506000054 | 66 | 179 | 1.0 | 1.0 | 0.00 | 0.00 | 0.00 | 63 | 1006.6 |
| 20260505235539 | 66 | 175 | 1.0 | 1.0 | 0.00 | 0.00 | 0.00 | 62 | 1006.7 |
| 20260505235036 | 66 | 161 | 0.0 | 3.0 | 0.00 | 0.00 | 0.00 | 62 | 1006.5 |
| 20260505234545 | 67 | 161 | 1.0 | 3.0 | 0.00 | 0.00 | 0.00 | 61 | 1006.2 |
| 20260505234041 | 67 | 162 | 0.0 | 2.0 | 0.00 | 0.00 | 0.00 | 63 | 1006.3 |
| 20260505233540 | 68 | 130 | 0.0 | 1.0 | 0.00 | 0.00 | 0.00 | 62 | 1006.1 |
| 20260505233050 | 68 | 0 | 0.0 | 2.0 | 0.00 | 0.00 | 0.00 | 61 | 1006.5 |
| 20260505232541 | 68 | 0 | 0.0 | 3.0 | 0.00 | 0.00 | 0.00 | 61 | 1006.5 |
| 20260505232043 | 68 | 0 | 1.0 | 6.0 | 0.00 | 0.00 | 0.00 | 61 | 1006.6 |
| 20260505231606 | 68 | 349 | 1.0 | 6.0 | 0.00 | 0.00 | 0.00 | 61 | 1006.6 |
| 20260505231040 | 67 | 0 | 1.0 | 4.0 | 0.00 | 0.00 | 0.00 | 61 | 1006.7 |
| 20260505230540 | 67 | 195 | 1.0 | 3.0 | 0.00 | 0.00 | 0.00 | 60 | 1006.7 |
| 20260505230053 | 67 | 141 | 0.0 | 11.0 | 0.00 | 0.00 | 0.00 | 59 | 1006.5 |
| 20260505225542 | 67 | 195 | 2.0 | 11.0 | 0.00 | 0.00 | 0.00 | 58 | 1006.4 |
| 20260505225040 | 67 | 251 | 4.0 | 11.0 | 0.00 | 0.00 | 0.00 | 57 | 1006.9 |
| 20260505224554 | 67 | 275 | 2.0 | 8.0 | 0.00 | 0.00 | 0.00 | 57 | 1005.2 |
| 20260505224039 | 67 | 200 | 4.0 | 8.0 | 0.00 | 0.00 | 0.00 | 56 | 1004.7 |
| 20260505223539 | 68 | 163 | 5.0 | 9.0 | 0.00 | 0.00 | 0.00 | 56 | 1004.7 |
| 20260505223054 | 68 | 162 | 4.0 | 10.0 | 0.00 | 0.00 | 0.00 | 55 | 1004.7 |
| 20260505222545 | 68 | 212 | 5.0 | 10.0 | 0.00 | 0.00 | 0.00 | 55 | 1004.5 |
| 20260505222040 | 69 | 207 | 4.0 | 10.0 | 0.00 | 0.00 | 0.00 | 55 | 1004.6 |
| 20260505221550 | 69 | 185 | 4.0 | 9.0 | 0.00 | 0.00 | 0.00 | 55 | 1004.6 |
| 20260505221041 | 69 | 193 | 4.0 | 9.0 | 0.00 | 0.00 | 0.00 | 54 | 1004.6 |
| 20260505220540 | 69 | 217 | 3.0 | 9.0 | 0.00 | 0.00 | 0.00 | 55 | 1004.6 |
| 20260505220059 | 69 | 236 | 3.0 | 9.0 | 0.00 | 0.00 | 0.00 | 54 | 1004.5 |
| 20260505215541 | 69 | 215 | 4.0 | 9.0 | 0.00 | 0.00 | 0.00 | 53 | 1004.4 |
| 20260505215040 | 70 | 217 | 3.0 | 9.0 | 0.00 | 0.00 | 0.00 | 53 | 1004.4 |
| 20260505214555 | 70 | 186 | 4.0 | 8.0 | 0.00 | 0.00 | 0.00 | 52 | 1004.3 |
| 20260505214040 | 71 | 200 | 4.0 | 11.0 | 0.00 | 0.00 | 0.00 | 51 | 1004.3 |
| 20260505213536 | 72 | 250 | 4.0 | 11.0 | 0.00 | 0.00 | 0.00 | 51 | 1004.4 |
| 20260505213052 | 72 | 206 | 5.0 | 11.0 | 0.00 | 0.00 | 0.00 | 50 | 1004.3 |
| 20260505212539 | 72 | 217 | 4.0 | 11.0 | 0.00 | 0.00 | 0.00 | 49 | 1004.2 |
| 20260505212037 | 72 | 248 | 5.0 | 10.0 | 0.00 | 0.00 | 0.00 | 50 | 1003.8 |
| 20260505211550 | 72 | 252 | 4.0 | 9.0 | 0.00 | 0.00 | 0.00 | 49 | 1004.0 |
| 20260505211043 | 72 | 203 | 4.0 | 8.0 | 0.00 | 0.00 | 0.00 | 50 | 1004.1 |
| 20260505210539 | 72 | 231 | 5.0 | 9.0 | 0.00 | 0.00 | 0.00 | 51 | 1004.0 |
| 20260505210047 | 72 | 161 | 4.0 | 9.0 | 0.00 | 0.00 | 0.00 | 51 | 1003.9 |
| 20260505205541 | 73 | 214 | 3.0 | 8.0 | 0.00 | 0.00 | 0.00 | 50 | 1004.0 |
| 20260505205041 | 74 | 162 | 4.0 | 8.0 | 0.00 | 0.00 | 0.00 | 48 | 1004.1 |
| 20260505204542 | 75 | 173 | 3.0 | 8.0 | 0.00 | 0.00 | 0.00 | 48 | 1004.0 |
| 20260505204041 | 75 | 186 | 4.0 | 8.0 | 0.00 | 0.00 | 0.00 | 48 | 1003.9 |
| 20260505203543 | 75 | 213 | 5.0 | 8.0 | 0.00 | 0.00 | 0.00 | 47 | 1004.0 |
| 20260505203106 | 75 | 212 | 5.0 | 8.0 | 0.00 | 0.00 | 0.00 | 48 | 1004.0 |
| 20260505202540 | 75 | 214 | 4.0 | 8.0 | 0.00 | 0.00 | 0.00 | 48 | 1004.0 |
| 20260505202040 | 75 | 172 | 4.0 | 8.0 | 0.00 | 0.00 | 0.00 | 48 | 1004.0 |
| 20260505201554 | 75 | 229 | 4.0 | 9.0 | 0.00 | 0.00 | 0.00 | 48 | 1004.0 |
| 20260505201040 | 75 | 235 | 4.0 | 9.0 | 0.00 | 0.00 | 0.00 | 49 | 1004.0 |
| 20260505200540 | 74 | 184 | 5.0 | 9.0 | 0.00 | 0.00 | 0.00 | 48 | 1004.1 |
| 20260505200052 | 74 | 231 | 4.0 | 11.0 | 0.00 | 0.00 | 0.00 | 49 | 1004.2 |
| 20260505195542 | 74 | 205 | 4.0 | 11.0 | 0.00 | 0.00 | 0.00 | 49 | 1004.2 |
| 20260505195039 | 75 | 171 | 5.0 | 10.0 | 0.00 | 0.00 | 0.00 | 48 | 1004.3 |
| 20260505194545 | 75 | 212 | 6.0 | 10.0 | 0.00 | 0.00 | 0.00 | 48 | 1004.3 |
| 20260505194040 | 75 | 230 | 4.0 | 8.0 | 0.00 | 0.00 | 0.00 | 47 | 1004.4 |
| 20260505193536 | 76 | 165 | 4.0 | 9.0 | 0.00 | 0.00 | 0.00 | 47 | 1004.5 |
| 20260505193043 | 76 | 158 | 3.0 | 9.0 | 0.00 | 0.00 | 0.00 | 47 | 1004.3 |
| 20260505192540 | 76 | 210 | 4.0 | 11.0 | 0.00 | 0.00 | 0.00 | 46 | 1004.5 |
| 20260505192040 | 76 | 201 | 4.0 | 11.0 | 0.00 | 0.00 | 0.00 | 47 | 1004.6 |
| 20260505191554 | 76 | 142 | 5.0 | 11.0 | 0.00 | 0.00 | 0.00 | 46 | 1004.6 |
| 20260505191040 | 76 | 215 | 5.0 | 8.0 | 0.00 | 0.00 | 0.00 | 45 | 1004.6 |
| 20260505190540 | 76 | 232 | 3.0 | 7.0 | 0.00 | 0.00 | 0.00 | 48 | 1004.8 |
| 20260505190053 | 75 | 182 | 3.0 | 7.0 | 0.00 | 0.00 | 0.00 | 48 | 1005.0 |
| 20260505185538 | 76 | 165 | 4.0 | 7.0 | 0.00 | 0.00 | 0.00 | 47 | 1005.1 |
| 20260505185036 | 75 | 172 | 4.0 | 9.0 | 0.00 | 0.00 | 0.00 | 49 | 1005.2 |
| 20260505184547 | 74 | 199 | 3.0 | 9.0 | 0.00 | 0.00 | 0.00 | 51 | 1005.2 |
| 20260505184037 | 74 | 249 | 5.0 | 9.0 | 0.00 | 0.00 | 0.00 | 50 | 1005.3 |
| 20260505183537 | 74 | 150 | 5.0 | 8.0 | 0.00 | 0.00 | 0.00 | 49 | 1005.4 |
| 20260505183046 | 74 | 208 | 4.0 | 7.0 | 0.00 | 0.00 | 0.00 | 49 | 1005.3 |
| 20260505182536 | 74 | 220 | 3.0 | 8.0 | 0.00 | 0.00 | 0.00 | 51 | 1005.5 |
| 20260505182036 | 73 | 179 | 3.0 | 8.0 | 0.00 | 0.00 | 0.00 | 50 | 1005.4 |
| 20260505181547 | 74 | 172 | 3.0 | 7.0 | 0.00 | 0.00 | 0.00 | 50 | 1005.5 |
| 20260505181035 | 73 | 193 | 4.0 | 8.0 | 0.00 | 0.00 | 0.00 | 51 | 1005.5 |
| 20260505180536 | 73 | 205 | 4.0 | 9.0 | 0.00 | 0.00 | 0.00 | 51 | 1005.5 |
| 20260505180047 | 74 | 200 | 4.0 | 9.0 | 0.00 | 0.00 | 0.00 | 50 | 1005.5 |
| 20260505175536 | 73 | 193 | 4.0 | 9.0 | 0.00 | 0.00 | 0.00 | 50 | 1005.6 |
| 20260505175036 | 74 | 205 | 4.0 | 8.0 | 0.00 | 0.00 | 0.00 | 49 | 1005.6 |
| 20260505174549 | 74 | 175 | 4.0 | 8.0 | 0.00 | 0.00 | 0.00 | 49 | 1005.5 |
| 20260505174036 | 75 | 153 | 4.0 | 8.0 | 0.00 | 0.00 | 0.00 | 48 | 1005.5 |
| 20260505173535 | 75 | 237 | 5.0 | 8.0 | 0.00 | 0.00 | 0.00 | 47 | 1005.7 |
| 20260505173054 | 76 | 165 | 3.0 | 7.0 | 0.00 | 0.00 | 0.00 | 47 | 1005.6 |
| 20260505172537 | 76 | 216 | 4.0 | 7.0 | 0.00 | 0.00 | 0.00 | 47 | 1005.7 |
| 20260505172037 | 76 | 233 | 4.0 | 8.0 | 0.00 | 0.00 | 0.00 | 47 | 1005.8 |
| 20260505171548 | 77 | 189 | 4.0 | 8.0 | 0.00 | 0.00 | 0.00 | 45 | 1005.9 |
| 20260505171036 | 77 | 171 | 4.0 | 8.0 | 0.00 | 0.00 | 0.00 | 45 | 1006.1 |
| 20260505170535 | 77 | 262 | 3.0 | 8.0 | 0.00 | 0.00 | 0.00 | 45 | 1006.1 |
| 20260505165538 | 77 | 214 | 5.0 | 8.0 | 0.00 | 0.00 | 0.00 | 45 | 1006.3 |
| 20260505165040 | 77 | 152 | 4.0 | 8.0 | 0.00 | 0.00 | 0.00 | 45 | 1006.4 |
| 20260505164554 | 78 | 205 | 4.0 | 6.0 | 0.00 | 0.00 | 0.00 | 43 | 1006.5 |
| 20260505164038 | 78 | 170 | 3.0 | 8.0 | 0.00 | 0.00 | 0.00 | 43 | 1006.5 |
| 20260505163538 | 77 | 150 | 3.0 | 8.0 | 0.00 | 0.00 | 0.00 | 45 | 1006.6 |
| 20260505163052 | 77 | 258 | 3.0 | 7.0 | 0.00 | 0.00 | 0.00 | 45 | 1006.8 |
| 20260505162535 | 76 | 214 | 2.0 | 5.0 | 0.00 | 0.00 | 0.00 | 46 | 1007.0 |
| 20260505162035 | 75 | 221 | 2.0 | 5.0 | 0.00 | 0.00 | 0.00 | 49 | 1007.1 |
| 20260505161547 | 74 | 180 | 2.0 | 5.0 | 0.00 | 0.00 | 0.00 | 51 | 1007.1 |
| 20260505161038 | 74 | 146 | 2.0 | 5.0 | 0.00 | 0.00 | 0.00 | 51 | 1007.2 |
| 20260505160537 | 74 | 183 | 3.0 | 5.0 | 0.00 | 0.00 | 0.00 | 49 | 1007.4 |
| 20260505153049 | 72 | 178 | 2.0 | 5.0 | 0.00 | 0.00 | 0.00 | 52 | 1007.8 |
| 20260505152538 | 71 | 211 | 1.0 | 6.0 | 0.00 | 0.00 | 0.00 | 53 | 1007.7 |
| 20260505152039 | 70 | 152 | 2.0 | 6.0 | 0.00 | 0.00 | 0.00 | 53 | 1007.9 |
| 20260505151600 | 70 | 202 | 2.0 | 4.0 | 0.00 | 0.00 | 0.00 | 54 | 1008.1 |
| 20260505151038 | 70 | 135 | 2.0 | 4.0 | 0.00 | 0.00 | 0.00 | 54 | 1008.1 |
| 20260505150542 | 69 | 160 | 2.0 | 5.0 | 0.00 | 0.00 | 0.00 | 55 | 1008.1 |
| 20260505140540 | 69 | 198 | 1.0 | 4.0 | 0.00 | 0.00 | 0.00 | 49 | 1007.3 |
| 20260505140104 | 70 | 277 | 2.0 | 4.0 | 0.00 | 0.00 | 0.00 | 48 | 1007.5 |
| 20260505125037 | 61 | 195 | 2.0 | 4.0 | 0.00 | 0.00 | 0.00 | 61 | 1008.1 |
| 20260505124551 | 61 | 234 | 2.0 | 4.0 | 0.00 | 0.00 | 0.00 | 62 | 1007.8 |
| 20260505124041 | 60 | 202 | 2.0 | 7.0 | 0.00 | 0.00 | 0.00 | 62 | 1007.7 |
| 20260505123541 | 60 | 226 | 2.0 | 7.0 | 0.00 | 0.00 | 0.00 | 62 | 1007.9 |
| 20260505123051 | 60 | 210 | 2.0 | 5.0 | 0.00 | 0.00 | 0.00 | 63 | 1007.9 |
| 20260505122544 | 59 | 213 | 2.0 | 5.0 | 0.00 | 0.00 | 0.00 | 63 | 1007.9 |
| 20260505122038 | 59 | 248 | 2.0 | 5.0 | 0.00 | 0.00 | 0.00 | 64 | 1007.8 |
| 20260505121611 | 59 | 235 | 1.0 | 4.0 | 0.00 | 0.00 | 0.00 | 65 | 1008.0 |
| 20260505121040 | 58 | 210 | 1.0 | 4.0 | 0.00 | 0.00 | 0.00 | 66 | 1007.9 |
| 20260505120539 | 57 | 257 | 2.0 | 4.0 | 0.00 | 0.00 | 0.00 | 67 | 1008.0 |
| 20260505120055 | 57 | 211 | 1.0 | 4.0 | 0.00 | 0.00 | 0.00 | 68 | 1008.2 |
| 20260505115546 | 57 | 238 | 1.0 | 4.0 | 0.00 | 0.00 | 0.00 | 69 | 1008.2 |
| 20260505115040 | 56 | 200 | 2.0 | 4.0 | 0.00 | 0.00 | 0.00 | 68 | 1008.5 |
| 20260505114552 | 56 | 194 | 2.0 | 4.0 | 0.00 | 0.00 | 0.00 | 70 | 1008.5 |
| 20260505114040 | 55 | 141 | 1.0 | 4.0 | 0.00 | 0.00 | 0.00 | 71 | 1008.3 |
| 20260505113539 | 54 | 224 | 1.0 | 3.0 | 0.00 | 0.00 | 0.00 | 72 | 1008.4 |
| 20260505113046 | 53 | 207 | 1.0 | 2.0 | 0.00 | 0.00 | 0.00 | 74 | 1008.5 |
| 20260505112539 | 53 | 153 | 1.0 | 2.0 | 0.00 | 0.00 | 0.00 | 75 | 1008.5 |
| 20260505112041 | 52 | 207 | 1.0 | 2.0 | 0.00 | 0.00 | 0.00 | 75 | 1008.7 |
| 20260505111547 | 52 | 139 | 0.0 | 1.0 | 0.00 | 0.00 | 0.00 | 76 | 1008.5 |
| 20260505111040 | 51 | 170 | 0.0 | 1.0 | 0.00 | 0.00 | 0.00 | 77 | 1008.5 |
| 20260505110543 | 51 | 155 | 0.0 | 1.0 | 0.00 | 0.00 | 0.00 | 77 | 1008.6 |
| 20260505102039 | 49 | 160 | 0.0 | 1.0 | 0.00 | 0.00 | 0.00 | 79 | 1008.5 |
| 20260505101555 | 49 | 169 | 0.0 | 1.0 | 0.00 | 0.00 | 0.00 | 78 | 1008.5 |
| 20260505101041 | 49 | 175 | 0.0 | 0.0 | 0.00 | 0.00 | 0.00 | 78 | 1008.4 |
| 20260505100540 | 49 | 0 | 0.0 | 0.0 | 0.00 | 0.00 | 0.00 | 77 | 1008.5 |
| 20260505100058 | 49 | 165 | 0.0 | 0.0 | 0.00 | 0.00 | 0.00 | 76 | 1008.4 |
| 20260505095541 | 50 | 0 | 0.0 | 0.0 | 0.00 | 0.00 | 0.00 | 76 | 1008.4 |
| 20260505095040 | 50 | 0 | 0.0 | 0.0 | 0.00 | 0.00 | 0.00 | 75 | 1008.5 |
| 20260505094555 | 50 | 165 | 0.0 | 0.0 | 0.00 | 0.00 | 0.00 | 75 | 1008.5 |
| 20260505094042 | 50 | 0 | 0.0 | 0.0 | 0.00 | 0.00 | 0.00 | 75 | 1008.4 |
| 20260505093542 | 50 | 165 | 0.0 | 1.0 | 0.00 | 0.00 | 0.00 | 74 | 1008.4 |
| 20260505093052 | 50 | 0 | 0.0 | 1.0 | 0.00 | 0.00 | 0.00 | 74 | 1008.4 |
| 20260505092540 | 50 | 165 | 0.0 | 1.0 | 0.00 | 0.00 | 0.00 | 73 | 1008.3 |
| 20260505092040 | 51 | 164 | 0.0 | 1.0 | 0.00 | 0.00 | 0.00 | 73 | 1008.4 |
| 20260505091550 | 51 | 172 | 0.0 | 1.0 | 0.00 | 0.00 | 0.00 | 72 | 1008.5 |
| 20260505091037 | 51 | 172 | 0.0 | 1.0 | 0.00 | 0.00 | 0.00 | 72 | 1008.4 |
| 20260505090540 | 51 | 158 | 0.0 | 1.0 | 0.00 | 0.00 | 0.00 | 71 | 1008.5 |
| 20260505090101 | 51 | 163 | 0.0 | 1.0 | 0.00 | 0.00 | 0.00 | 71 | 1008.4 |
| 20260505085537 | 51 | 163 | 0.0 | 1.0 | 0.00 | 0.00 | 0.00 | 71 | 1008.5 |
| 20260505085040 | 51 | 163 | 0.0 | 1.0 | 0.00 | 0.00 | 0.00 | 71 | 1008.6 |
| 20260505084551 | 51 | 172 | 0.0 | 1.0 | 0.00 | 0.00 | 0.00 | 72 | 1008.6 |
| 20260505084041 | 50 | 170 | 0.0 | 1.0 | 0.00 | 0.00 | 0.00 | 73 | 1008.6 |
| 20260505083540 | 50 | 172 | 0.0 | 1.0 | 0.00 | 0.00 | 0.00 | 74 | 1008.7 |
| 20260505083056 | 49 | 211 | 0.0 | 1.0 | 0.00 | 0.00 | 0.00 | 74 | 1008.7 |
| 20260505082540 | 49 | 211 | 0.0 | 1.0 | 0.00 | 0.00 | 0.00 | 74 | 1008.7 |
| 20260505082040 | 49 | 211 | 0.0 | 1.0 | 0.00 | 0.00 | 0.00 | 74 | 1008.8 |
| 20260505081551 | 50 | 0 | 0.0 | 0.0 | 0.00 | 0.00 | 0.00 | 72 | 1008.9 |
| 20260505081040 | 50 | 0 | 0.0 | 0.0 | 0.00 | 0.00 | 0.00 | 72 | 1008.8 |
| 20260505080539 | 50 | 0 | 0.0 | 0.0 | 0.00 | 0.00 | 0.00 | 71 | 1008.8 |
| 20260505080053 | 51 | 0 | 0.0 | 0.0 | 0.00 | 0.00 | 0.00 | 70 | 1008.8 |
| 20260505075542 | 51 | 0 | 0.0 | 0.0 | 0.00 | 0.00 | 0.00 | 69 | 1008.8 |
| 20260505075039 | 52 | 0 | 0.0 | 1.0 | 0.00 | 0.00 | 0.00 | 68 | 1008.8 |
| 20260505074549 | 53 | 0 | 0.0 | 1.0 | 0.00 | 0.00 | 0.00 | 67 | 1008.9 |
| 20260505074038 | 53 | 213 | 0.0 | 1.0 | 0.00 | 0.00 | 0.00 | 67 | 1008.9 |
| 20260505073538 | 53 | 229 | 0.0 | 1.0 | 0.00 | 0.00 | 0.00 | 67 | 1008.9 |
| 20260505073046 | 53 | 229 | 0.0 | 1.0 | 0.00 | 0.00 | 0.00 | 67 | 1008.9 |
| 20260505072542 | 53 | 0 | 0.0 | 1.0 | 0.00 | 0.00 | 0.00 | 67 | 1008.8 |
| 20260505072039 | 53 | 0 | 0.0 | 1.0 | 0.00 | 0.00 | 0.00 | 67 | 1008.7 |
| 20260505071553 | 53 | 247 | 0.0 | 1.0 | 0.00 | 0.00 | 0.00 | 66 | 1008.7 |
| 20260505071039 | 53 | 0 | 0.0 | 1.0 | 0.00 | 0.00 | 0.00 | 66 | 1008.6 |
| 20260505070539 | 53 | 247 | 0.0 | 1.0 | 0.00 | 0.00 | 0.00 | 66 | 1008.6 |
| 20260505070046 | 54 | 0 | 0.0 | 1.0 | 0.00 | 0.00 | 0.00 | 65 | 1008.6 |
| 20260505065541 | 54 | 247 | 0.0 | 1.0 | 0.00 | 0.00 | 0.00 | 65 | 1008.6 |
| 20260505065039 | 54 | 0 | 0.0 | 1.0 | 0.00 | 0.00 | 0.00 | 64 | 1008.6 |
| 20260505064544 | 54 | 0 | 0.0 | 1.0 | 0.00 | 0.00 | 0.00 | 64 | 1008.7 |
| 20260505064040 | 54 | 0 | 0.0 | 1.0 | 0.00 | 0.00 | 0.00 | 64 | 1008.7 |
| 20260505063538 | 54 | 0 | 0.0 | 1.0 | 0.00 | 0.00 | 0.00 | 63 | 1008.6 |
| 20260505063050 | 55 | 0 | 0.0 | 1.0 | 0.00 | 0.00 | 0.00 | 63 | 1008.7 |
| 20260505062538 | 55 | 247 | 0.0 | 1.0 | 0.00 | 0.00 | 0.00 | 62 | 1008.6 |
| 20260505062040 | 55 | 248 | 1.0 | 1.0 | 0.00 | 0.00 | 0.00 | 62 | 1008.5 |
| 20260505061554 | 55 | 238 | 0.0 | 1.0 | 0.00 | 0.00 | 0.00 | 62 | 1008.6 |
| 20260505061038 | 55 | 214 | 0.0 | 1.0 | 0.00 | 0.00 | 0.00 | 62 | 1008.6 |
| 20260505060538 | 55 | 0 | 0.0 | 1.0 | 0.00 | 0.00 | 0.00 | 62 | 1008.7 |
| 20260505060051 | 55 | 0 | 0.0 | 1.0 | 0.00 | 0.00 | 0.00 | 62 | 1008.5 |
| 20260505055540 | 56 | 0 | 0.0 | 1.0 | 0.00 | 0.00 | 0.00 | 61 | 1008.5 |
| 20260505055040 | 56 | 221 | 0.0 | 1.0 | 0.00 | 0.00 | 0.00 | 61 | 1008.6 |
| 20260505054552 | 56 | 232 | 0.0 | 1.0 | 0.00 | 0.00 | 0.00 | 61 | 1008.6 |
| 20260505054039 | 56 | 217 | 0.0 | 2.0 | 0.00 | 0.00 | 0.00 | 60 | 1008.5 |
| 20260505053538 | 56 | 217 | 0.0 | 2.0 | 0.00 | 0.00 | 0.00 | 60 | 1008.6 |
| 20260505053105 | 56 | 223 | 1.0 | 1.0 | 0.00 | 0.00 | 0.00 | 60 | 1008.5 |
| 20260505052538 | 56 | 234 | 0.0 | 1.0 | 0.00 | 0.00 | 0.00 | 60 | 1008.6 |
| 20260505052038 | 56 | 206 | 0.0 | 1.0 | 0.00 | 0.00 | 0.00 | 61 | 1008.5 |
| 20260505051550 | 56 | 0 | 0.0 | 1.0 | 0.00 | 0.00 | 0.00 | 60 | 1008.4 |
| 20260505051039 | 56 | 0 | 0.0 | 1.0 | 0.00 | 0.00 | 0.00 | 60 | 1008.5 |
| 20260505050537 | 56 | 228 | 0.0 | 1.0 | 0.00 | 0.00 | 0.00 | 59 | 1008.5 |
| 20260505041551 | 57 | 248 | 0.0 | 2.0 | 0.00 | 0.00 | 0.00 | 59 | 1008.1 |
| 20260505041041 | 57 | 227 | 0.0 | 2.0 | 0.00 | 0.00 | 0.00 | 59 | 1008.2 |
| 20260505040540 | 57 | 0 | 0.0 | 2.0 | 0.00 | 0.00 | 0.00 | 59 | 1008.1 |
| 20260505040046 | 57 | 226 | 1.0 | 2.0 | 0.00 | 0.00 | 0.00 | 59 | 1008.1 |
| 20260505035540 | 57 | 221 | 1.0 | 3.0 | 0.00 | 0.00 | 0.00 | 59 | 1008.0 |
| 20260505035043 | 57 | 225 | 1.0 | 3.0 | 0.00 | 0.00 | 0.00 | 59 | 1008.1 |
| 20260505034550 | 56 | 225 | 0.0 | 3.0 | 0.00 | 0.00 | 0.00 | 60 | 1007.9 |
| 20260505034040 | 56 | 213 | 1.0 | 2.0 | 0.00 | 0.00 | 0.00 | 61 | 1008.0 |
| 20260505033542 | 56 | 221 | 1.0 | 2.0 | 0.00 | 0.00 | 0.00 | 61 | 1007.9 |
| 20260505033106 | 56 | 221 | 0.0 | 2.0 | 0.00 | 0.00 | 0.00 | 62 | 1007.9 |
| 20260505032542 | 55 | 0 | 0.0 | 2.0 | 0.00 | 0.00 | 0.00 | 62 | 1007.9 |
| 20260505032036 | 55 | 220 | 0.0 | 1.0 | 0.00 | 0.00 | 0.00 | 62 | 1007.9 |
| 20260505031546 | 55 | 226 | 0.0 | 2.0 | 0.00 | 0.00 | 0.00 | 63 | 1008.0 |
| 20260505031042 | 55 | 0 | 1.0 | 4.0 | 0.00 | 0.00 | 0.00 | 64 | 1007.9 |
| 20260505030542 | 55 | 217 | 0.0 | 4.0 | 0.00 | 0.00 | 0.00 | 64 | 1007.9 |
| 20260505030058 | 54 | 237 | 1.0 | 3.0 | 0.00 | 0.00 | 0.00 | 67 | 1008.0 |
| 20260505025541 | 53 | 211 | 0.0 | 3.0 | 0.00 | 0.00 | 0.00 | 68 | 1008.0 |
| 20260505025040 | 53 | 164 | 0.0 | 2.0 | 0.00 | 0.00 | 0.00 | 69 | 1007.9 |
| 20260505024552 | 53 | 0 | 0.0 | 2.0 | 0.00 | 0.00 | 0.00 | 69 | 1007.9 |
| 20260505024040 | 53 | 203 | 1.0 | 2.0 | 0.00 | 0.00 | 0.00 | 69 | 1007.8 |
| 20260505023540 | 53 | 209 | 0.0 | 1.0 | 0.00 | 0.00 | 0.00 | 69 | 1007.8 |
| 20260505023058 | 53 | 165 | 0.0 | 1.0 | 0.00 | 0.00 | 0.00 | 69 | 1007.7 |
| 20260505022542 | 53 | 165 | 0.0 | 1.0 | 0.00 | 0.00 | 0.00 | 69 | 1007.7 |
| 20260505022045 | 53 | 164 | 0.0 | 1.0 | 0.00 | 0.00 | 0.00 | 69 | 1007.7 |
| 20260505021549 | 53 | 164 | 0.0 | 1.0 | 0.00 | 0.00 | 0.00 | 69 | 1007.7 |
| 20260505021038 | 53 | 0 | 0.0 | 1.0 | 0.00 | 0.00 | 0.00 | 68 | 1007.7 |
| 20260505020540 | 53 | 161 | 0.0 | 1.0 | 0.00 | 0.00 | 0.00 | 67 | 1007.6 |
| 20260505020051 | 54 | 161 | 0.0 | 1.0 | 0.00 | 0.00 | 0.00 | 66 | 1007.6 |
| 20260505015538 | 54 | 158 | 0.0 | 1.0 | 0.00 | 0.00 | 0.00 | 66 | 1007.5 |
| 20260505015045 | 54 | 152 | 0.0 | 1.0 | 0.00 | 0.00 | 0.00 | 64 | 1007.5 |
| 20260505014548 | 55 | 152 | 0.0 | 1.0 | 0.00 | 0.00 | 0.00 | 63 | 1007.6 |
| 20260505014044 | 55 | 152 | 0.0 | 1.0 | 0.00 | 0.00 | 0.00 | 61 | 1007.5 |
| 20260505013542 | 55 | 155 | 0.0 | 1.0 | 0.00 | 0.00 | 0.00 | 60 | 1007.4 |
| 20260505013051 | 55 | 0 | 0.0 | 1.0 | 0.00 | 0.00 | 0.00 | 59 | 1007.3 |
| 20260505012540 | 55 | 160 | 0.0 | 1.0 | 0.00 | 0.00 | 0.00 | 59 | 1007.3 |
| 20260505012040 | 54 | 143 | 0.0 | 1.0 | 0.00 | 0.00 | 0.00 | 58 | 1007.1 |
| 20260505011559 | 55 | 0 | 0.0 | 1.0 | 0.00 | 0.00 | 0.00 | 57 | 1007.1 |
| 20260505011041 | 55 | 0 | 0.0 | 1.0 | 0.00 | 0.00 | 0.00 | 56 | 1007.1 |
| 20260505010537 | 56 | 134 | 0.0 | 0.0 | 0.00 | 0.00 | 0.00 | 55 | 1007.0 |
| 20260505010044 | 56 | 0 | 0.0 | 0.0 | 0.00 | 0.00 | 0.00 | 52 | 1007.1 |
| 20260505005540 | 57 | 0 | 0.0 | 0.0 | 0.00 | 0.00 | 0.00 | 52 | 1007.0 |
| 20260505005040 | 57 | 0 | 0.0 | 0.0 | 0.00 | 0.00 | 0.00 | 52 | 1006.9 |
| 20260505004551 | 57 | 0 | 0.0 | 0.0 | 0.00 | 0.00 | 0.00 | 52 | 1006.9 |
| 20260505004037 | 58 | 0 | 0.0 | 0.0 | 0.00 | 0.00 | 0.00 | 51 | 1006.8 |